(352222) = 2007 TQ35

Discovered at Catalina on 2007-10-07 by CSS.

Orbit

Orbit type: Main Belt

Note: WebGL enabled browser required.

epoch2023-09-13.0
epoch JD2460200.5
perihelion date2019-06-28.14314
perihelion JD2458662.64314
argument of perihelion (°)229.27584
ascending node (°)51.67967
inclination (°)32.73053
eccentricity0.2331868
perihelion distance (AU)2.0256426
Tisserand w.r.t. Jupiter3.1
ΔV w.r.t. Earth (km/sec)13.5
semimajor axis (AU)2.6416378
mean anomaly (°)353.02856
mean daily motion (°/day)0.22955880
aphelion distance (AU)3.258
period (years)4.29
P-vector [x]0.09564041
P-vector [y]-0.66931033
P-vector [z]-0.73680160
Q-vector [x]0.90050358
Q-vector [y]0.37361325
Q-vector [z]-0.22250042
absolute magnitude15.05
phase slope0.15
uncertainty0
referenceMPEC 2024-A48
observations used1335
oppositions12
arc length (days)5790
first opposition used2007
last opposition used2023
residual rms (arc-secs)0.56
perturbers coarse indicatorM-v
perturbers precise indicator003Ek
first observation date used2007-10-07.0
last observation date used2023-08-14.0
computer nameMPCLINUX
JD of orbit computation2456877.855416
perihelion JD uncertainty (days)1.8357E-04
argument of perihelion uncertainty (°)3.4288E-05
ascending node uncertainty (°)1.1530E-05
inclination uncertainty (°)1.0889E-05
eccentricity uncertainty 8.0044E-08
perihelion distance uncertainty (AU)2.4712E-07
Minimum Orbit Intersection Distances (in AU)
for orbit epoch: 2460200.5, reference: E2024-A48
Mercury1.58854
Venus1.3619
Earth1.09475
Mars0.60734
Jupiter2.01736
Saturn6.05212
Uranus15.9523
Neptune26.8646

Observations

1381 total observations over interval: 2007 10 07.31651 – 2023 08 14.036989
These data are available for download (format description).

Date (UT) J2000 RA J2000 Dec Magn Location Ref
2007 10 07.31651 03 51 52.35 +13 20 08.2 19.1   704 – Lincoln Laboratory ETS, New Mexico MPS 319380
2007 10 07.32755 03 51 51.84 +13 20 13.1 19.7   704 – Lincoln Laboratory ETS, New Mexico MPS 319380
2007 10 07.33856 03 51 51.40 +13 20 15.6 19.8   704 – Lincoln Laboratory ETS, New Mexico MPS 319380
2007 10 07.36065 03 51 50.53 +13 20 21.6 20.0   704 – Lincoln Laboratory ETS, New Mexico MPS 319380
2007 10 07.36563 03 51 50.32 +13 20 23.2 19.4 V 703 – Catalina Sky Survey MPS 220736
2007 10 07.37461 03 51 49.86 +13 20 25.2 19.3 V 703 – Catalina Sky Survey MPS 220736
2007 10 07.38360 03 51 49.60 +13 20 29.0 19.3 V 703 – Catalina Sky Survey MPS 220736
2007 10 07.39260 03 51 49.10 +13 20 30.3 19.5 V 703 – Catalina Sky Survey MPS 220736
2007 10 07.42409 03 51 47.79 +13 20 39.5 18.7 V 703 – Catalina Sky Survey MPS 220736
2007 10 07.43138 03 51 47.53 +13 20 41.9 18.7 V 703 – Catalina Sky Survey MPS 220736
2007 10 07.43863 03 51 47.25 +13 20 43.5   703 – Catalina Sky Survey MPS 220736
2007 10 07.44587 03 51 46.89 +13 20 45.5   703 – Catalina Sky Survey MPS 220736
2007 10 09.81747 03 50 05.43 +13 31 52.9 19.0 R D29 – Purple Mountain Observatory, XuYi Station MPS 220736
2007 10 09.83583 03 50 04.56 +13 31 58.3 19.4 R D29 – Purple Mountain Observatory, XuYi Station MPS 220736
2007 10 09.85115 03 50 03.84 +13 32 02.5 19.5 R D29 – Purple Mountain Observatory, XuYi Station MPS 220736
2007 10 09.86754 03 50 03.11 +13 32 06.8 19.7 R D29 – Purple Mountain Observatory, XuYi Station MPS 220736
2007 10 10.44225 03 49 37.08 +13 34 48.8 19.4 V 691 – Steward Observatory, Kitt Peak-Spacewatch MPS 222601
2007 10 10.45733 03 49 36.33 +13 34 54.4 19.1 V 691 – Steward Observatory, Kitt Peak-Spacewatch MPS 222601
2007 10 10.46995 03 49 35.77 +13 34 56.6 19.4 V 691 – Steward Observatory, Kitt Peak-Spacewatch MPS 222601
2007 10 13.30737 03 47 18.97 +13 48 13.2 19.6   704 – Lincoln Laboratory ETS, New Mexico MPS 220736
2007 10 13.31867 03 47 18.41 +13 48 16.7 19.6   704 – Lincoln Laboratory ETS, New Mexico MPS 220736
2007 10 13.33002 03 47 17.86 +13 48 20.0 19.7   704 – Lincoln Laboratory ETS, New Mexico MPS 220736
2007 10 13.34134 03 47 17.25 +13 48 22.8 19.6   704 – Lincoln Laboratory ETS, New Mexico MPS 220736
2007 10 13.35270 03 47 16.66 +13 48 26.9 19.9   704 – Lincoln Laboratory ETS, New Mexico MPS 220736
2007 10 19.31240 03 41 46.87 +14 16 09.4 18.9   704 – Lincoln Laboratory ETS, New Mexico MPS 222601
2007 10 19.32384 03 41 46.13 +14 16 13.5 19.6   704 – Lincoln Laboratory ETS, New Mexico MPS 222601
2007 10 19.33530 03 41 45.46 +14 16 15.0 19.1   704 – Lincoln Laboratory ETS, New Mexico MPS 222601
2007 10 19.34661 03 41 44.76 +14 16 19.9 19.3   704 – Lincoln Laboratory ETS, New Mexico MPS 222601
2007 10 20.33336 03 40 45.08 +14 20 50.9 18.4 V 703 – Catalina Sky Survey MPS 223557
2007 10 20.34097 03 40 44.61 +14 20 54.0 18.5 V 703 – Catalina Sky Survey MPS 223557
2007 10 20.34860 03 40 44.07 +14 20 55.8 18.6 V 703 – Catalina Sky Survey MPS 223557
2007 10 20.35625 03 40 43.60 +14 20 58.4 18.5 V 703 – Catalina Sky Survey MPS 223557
2007 10 21.31158 03 39 44.59 +14 25 24.3 19.0   704 – Lincoln Laboratory ETS, New Mexico MPS 223557
2007 10 21.32308 03 39 43.89 +14 25 26.0 19.4   704 – Lincoln Laboratory ETS, New Mexico MPS 223557
2007 10 21.33458 03 39 43.09 +14 25 29.3 20.0   704 – Lincoln Laboratory ETS, New Mexico MPS 223557
2007 10 21.34608 03 39 42.37 +14 25 32.3 19.4   704 – Lincoln Laboratory ETS, New Mexico MPS 223557
2007 10 21.35759 03 39 41.62 +14 25 35.3 19.6   704 – Lincoln Laboratory ETS, New Mexico MPS 223557
2007 10 21.42444 03 39 37.33 +14 25 53.3   691 – Steward Observatory, Kitt Peak-Spacewatch MPS 223557
2007 10 21.44205 03 39 36.23 +14 25 58.7   691 – Steward Observatory, Kitt Peak-Spacewatch MPS 223557
2007 10 21.45967 03 39 35.10 +14 26 03.0   691 – Steward Observatory, Kitt Peak-Spacewatch MPS 223557
2007 10 30.38568 03 29 27.96 +15 06 31.1 18.7 V 703 – Catalina Sky Survey MPS 223557
2007 10 30.39463 03 29 27.31 +15 06 33.1 18.6 V 703 – Catalina Sky Survey MPS 223557
2007 10 30.40362 03 29 26.59 +15 06 35.2 18.5 V 703 – Catalina Sky Survey MPS 223557
2007 10 30.41260 03 29 25.98 +15 06 38.1 19.2 V 703 – Catalina Sky Survey MPS 223557
2007 11 02.23929 03 25 57.64 +15 19 07.8 19.1 V 691 – Steward Observatory, Kitt Peak-Spacewatch MPS 224995
2007 11 02.25695 03 25 56.30 +15 19 12.5 19.1 V 691 – Steward Observatory, Kitt Peak-Spacewatch MPS 224995
2007 11 02.27470 03 25 54.93 +15 19 17.4 19.0 V 691 – Steward Observatory, Kitt Peak-Spacewatch MPS 224995
2007 11 03.19554 03 24 45.81 +15 23 18.8 19.1 V 691 – Steward Observatory, Kitt Peak-Spacewatch MPS 224995
2007 11 03.21319 03 24 44.46 +15 23 23.4 19.0 V 691 – Steward Observatory, Kitt Peak-Spacewatch MPS 224995
2007 11 03.23084 03 24 43.10 +15 23 28.1 19.1 V 691 – Steward Observatory, Kitt Peak-Spacewatch MPS 224995
2007 11 03.39623 03 24 30.42 +15 24 12.2 19.3 r 699 – Lowell Observatory-LONEOS MPS 224995
2007 11 03.41452 03 24 28.93 +15 24 15.7 19.1 r 699 – Lowell Observatory-LONEOS MPS 224995
2007 11 03.43282 03 24 27.60 +15 24 21.0 19.2 r 699 – Lowell Observatory-LONEOS MPS 224995
2007 11 03.45111 03 24 26.11 +15 24 25.4 19.3 r 699 – Lowell Observatory-LONEOS MPS 224995
2007 11 03.59290 03 24 15.79 +15 25 02.3 19.0 R D29 – Purple Mountain Observatory, XuYi Station MPS 224995
2007 11 03.60783 03 24 14.62 +15 25 06.6 18.7 R D29 – Purple Mountain Observatory, XuYi Station MPS 224995
2007 11 03.62836 03 24 13.02 +15 25 12.4 19.2 R D29 – Purple Mountain Observatory, XuYi Station MPS 224995
2007 11 03.64412 03 24 11.80 +15 25 16.1 18.6 R D29 – Purple Mountain Observatory, XuYi Station MPS 224995
2007 11 05.25957 03 22 08.73 +15 32 16.6 18.9   704 – Lincoln Laboratory ETS, New Mexico MPS 224995
2007 11 05.27184 03 22 07.79 +15 32 20.1 19.1   704 – Lincoln Laboratory ETS, New Mexico MPS 224995
2007 11 05.28390 03 22 06.87 +15 32 24.2 19.2   704 – Lincoln Laboratory ETS, New Mexico MPS 224995
2007 11 05.29596 03 22 05.87 +15 32 25.8 19.3   704 – Lincoln Laboratory ETS, New Mexico MPS 224995
2007 11 05.30816 03 22 04.93 +15 32 29.6 19.4   704 – Lincoln Laboratory ETS, New Mexico MPS 224995
2007 11 07.31384 03 19 30.39 +15 41 05.9 18.7   704 – Lincoln Laboratory ETS, New Mexico MPS 224995
2007 11 07.32622 03 19 29.40 +15 41 08.9 19.0   704 – Lincoln Laboratory ETS, New Mexico MPS 224995
2007 11 07.33860 03 19 28.43 +15 41 12.1 19.3   704 – Lincoln Laboratory ETS, New Mexico MPS 224995
2007 11 07.35099 03 19 27.45 +15 41 14.6 19.1   704 – Lincoln Laboratory ETS, New Mexico MPS 224995
2007 11 07.36339 03 19 26.45 +15 41 18.9 19.2   704 – Lincoln Laboratory ETS, New Mexico MPS 224995
2007 11 14.25334 03 10 29.74 +16 10 08.4 18.8   704 – Lincoln Laboratory ETS, New Mexico MPS 226943
2007 11 14.26581 03 10 28.78 +16 10 11.7 19.1   704 – Lincoln Laboratory ETS, New Mexico MPS 226943
2007 11 14.27830 03 10 27.74 +16 10 14.5 19.1   704 – Lincoln Laboratory ETS, New Mexico MPS 226943
2007 11 14.29080 03 10 26.83 +16 10 18.4 19.3   704 – Lincoln Laboratory ETS, New Mexico MPS 226943
2007 11 14.30330 03 10 25.80 +16 10 20.8 18.9   704 – Lincoln Laboratory ETS, New Mexico MPS 226943
2007 11 17.31759 03 06 32.50 +16 22 36.0 18.8 V 703 – Catalina Sky Survey MPS 228322
2007 11 17.32670 03 06 31.86 +16 22 38.4 18.8 V 703 – Catalina Sky Survey MPS 228322
2007 11 17.33581 03 06 31.06 +16 22 40.4 18.6 V 703 – Catalina Sky Survey MPS 228322
2007 11 17.34491 03 06 30.34 +16 22 42.5 18.6 V 703 – Catalina Sky Survey MPS 228322
2007 11 20.27696 03 02 47.43 +16 34 28.2 18.8 V G96 – Mt. Lemmon Survey MPS 229050
2007 11 20.28196 03 02 47.04 +16 34 29.5 18.6 V G96 – Mt. Lemmon Survey MPS 229050
2007 11 20.28693 03 02 46.64 +16 34 30.6 18.2 V G96 – Mt. Lemmon Survey MPS 229050
2007 11 20.29194 03 02 46.28 +16 34 31.9 18.7 V G96 – Mt. Lemmon Survey MPS 229050
2007 12 05.11592 02 45 52.86 +17 32 21.0 19.8 r 699 – Lowell Observatory-LONEOS MPS 229872
2007 12 05.14152 02 45 51.32 +17 32 27.7 18.9 r 699 – Lowell Observatory-LONEOS MPS 229872
2007 12 05.16711 02 45 49.89 +17 32 34.0 19.0 r 699 – Lowell Observatory-LONEOS MPS 229872
2007 12 05.19271 02 45 48.21 +17 32 39.3 19.4 r 699 – Lowell Observatory-LONEOS MPS 229872
